75P/Kohoutek (2007)

Japanese version
Home page
Total 6,336 html files since Dec. 4, 1995
Updated on August 8, 2007

---------------------------------------------------------------------

* Profile

* Orbital Elements

Perturbed ephemeris below is based on elements from MPC 31663. 

 Epoch = 2454400.50000 TT   T = 2454408.75183 TT
 Peri. =  175.62701         a =     3.5528843 AU
 Node  =  269.68312 J2000.0 e =     0.4946376
 Incl. =    5.90138         q =     1.7954940 AU

* Magnitudes Graph

        m1 = 18 + 5 log d + 5 log r

---------------------------------------------------------------------

The orbital elements are calculated using the Minor Planet & Comet Ephemeris Service.
The magnitudes graphs are made with Comet for Windows.

---------------------------------------------------------------------

Copyright(C) 1995-2008 Seiichi Yoshida (comet@aerith.net). All rights reserved.